Visibility
12.5 14.7 9.3 15.0 15.0 15.0 0.5 14.9 15.0 15.0 15.0 15.0 15.0 15.0 15.0 15.0 15.0 15.0 15.0 15.0 15.0 15.0 15.0 15.0 15.0 15.0 15.0 15.0 15.0 15.0 15.0 15.0 15.0 15.0 15.0 15.0 15.0 15.0 15.0 15.0 15.0 15.0 15.0 15.0
12.9 14.1 11.3 15.0 15.0 15.0 12.7 15.0 14.3 9.5 15.0 15.0 15.0 15.0 15.0 15.0 15.0 15.0 15.0 15.0 15.0 15.0 15.0 15.0 15.0 15.0 15.0 15.0 15.0 15.0 15.0 15.0 15.0 15.0 15.0 15.0 15.0 15.0 15.0 15.0 15.0 15.0 8.2 15.0
5.5 14.8 10.7 15.0 15.0 15.0 12.0 14.7 12.4 0.2 11.4 15.0 15.0 15.0 15.0 15.0 15.0 15.0 15.0 15.0 15.0 15.0 15.0 15.0 15.0 15.0 15.0 15.0 15.0 15.0 15.0 15.0 15.0 15.0 15.0 15.0 15.0 15.0 15.0 15.0 15.0 15.0 15.0 15.0
5.3 12.7 10.7 15.0 15.0 15.0 2.1 11.7 14.4 12.5 0.6 15.0 15.0 15.0 15.0 15.0 15.0 15.0 15.0 15.0 15.0 15.0 15.0 15.0 15.0 15.0 15.0 15.0 15.0 15.0 15.0 15.0 15.0 15.0 15.0 15.0 15.0 15.0 15.0 15.0 15.0 15.0 15.0 15.0
4.8 6.1 7.1 15.0 15.0 14.9 0.1 7.9 15.0 14.3 15.0 15.0 15.0 15.0 15.0 15.0 15.0 15.0 15.0 15.0 15.0 15.0 15.0 15.0 15.0 15.0 15.0 15.0 15.0 15.0 15.0 15.0 15.0 15.0 15.0 15.0 15.0 15.0 15.0 15.0 15.0 15.0 15.0 15.0
13.3 9.4 14.5 15.0 15.0 0.7 1.5 15.0 15.0 13.9 15.0 15.0 15.0 15.0 15.0 15.0 15.0 15.0 15.0 15.0 15.0 15.0 15.0 15.0 15.0 15.0 15.0 15.0 15.0 15.0 15.0 15.0 15.0 15.0 15.0 15.0 15.0 15.0 15.0 15.0 15.0 15.0 15.0 15.0
10.6 14.1 15.0 15.0 15.0 3.1 2.6 15.0 10.8 9.4 11.0 15.0 15.0 15.0 15.0 15.0 15.0 15.0 15.0 15.0 15.0 15.0 15.0 15.0 15.0 15.0 15.0 15.0 15.0 15.0 15.0 15.0 15.0 8.9 15.0 15.0 15.0 15.0 15.0 15.0 15.0 15.0 15.0 15.0
15.0 15.0 15.0 15.0 15.0 4.8 12.9 15.0 1.6 8.6 13.7 15.0 15.0 15.0 15.0 15.0 15.0 15.0 15.0 15.0 15.0 15.0 15.0 15.0 15.0 15.0 15.0 15.0 15.0 15.0 15.0 15.0 15.0 15.0 15.0 15.0 15.0 15.0 15.0 15.0 15.0 15.0 15.0 15.0
15.0 15.0 15.0 15.0 15.0 14.9 15.0 15.0 13.2 0.6 7.8 15.0 15.0 15.0 15.0 15.0 15.0 15.0 3.1 15.0 15.0 15.0 15.0 15.0 15.0 15.0 15.0 15.0 15.0 15.0 15.0 15.0 15.0 15.0 15.0 15.0 15.0 15.0 15.0 15.0 15.0 15.0 15.0 15.0
15.0 15.0 15.0 15.0 15.0 15.0 15.0 15.0 15.0 0.3 1.9 15.0 15.0 15.0 15.0 15.0 15.0 3.5 14.8 15.0 15.0 15.0 9.7 0.0 15.0 15.0 15.0 14.9 15.0 5.4 15.0 15.0 0.1 15.0 6.8 15.0 15.0 15.0 15.0 15.0 15.0 15.0 15.0 15.0
15.0 15.0 15.0 15.0 15.0 15.0 3.3 4.6 15.0 0.3 4.7 15.0 15.0 15.0 15.0 15.0 15.0 1.8 15.0 15.0 15.0 15.0 9.4 0.1 15.0 8.8 15.0 15.0 15.0 15.0 15.0 10.7 0.2 14.4 0.2 0.1 15.0 15.0 15.0 15.0 15.0 15.0 15.0 15.0
15.0 15.0 15.0 15.0 15.0 15.0 8.5 3.3 7.0 1.3 0.1 15.0 15.0 15.0 15.0 15.0 13.9 6.8 15.0 15.0 15.0 15.0 1.8 1.1 6.2 1.5 0.1 15.0 15.0 15.0 15.0 14.1 15.0 15.0 14.5 15.0 15.0 15.0 15.0 15.0 15.0 15.0 15.0 15.0
15.0 15.0 15.0 6.4 13.5 5.7 5.9 4.5 4.8 3.3 15.0 15.0 13.2 15.0 15.0 15.0 15.0 15.0 15.0 15.0 15.0 15.0 15.0 15.0 10.9 0.0 14.7 0.2 15.0 15.0 15.0 15.0 15.0 15.0 15.0 15.0 15.0 15.0 15.0 15.0 15.0 15.0 15.0 15.0
12.2 14.5 7.2 7.0 3.5 3.6 11.5 0.6 9.6 5.6 10.9 0.0 15.0 15.0 15.0 15.0 10.8 12.6 15.0 15.0 15.0 15.0 15.0 15.0 2.2 0.1 15.0 15.0 15.0 15.0 15.0 15.0 15.0 15.0 15.0 15.0 15.0 15.0 15.0 15.0 15.0 15.0 15.0 15.0
15.0 14.5 14.0 1.5 2.7 10.7 5.2 3.3 7.3 4.6 14.6 0.8 15.0 15.0 15.0 15.0 15.0 15.0 15.0 15.0 15.0 15.0 4.2 0.0 10.0 15.0 15.0 15.0 15.0 15.0 15.0 15.0 15.0 15.0 15.0 15.0 15.0 15.0 15.0 15.0 15.0 15.0 15.0 15.0
14.7 15.0 15.0 14.7 13.3 15.0 10.9 14.8 15.0 4.7 15.0 15.0 8.3 15.0 15.0 15.0 15.0 15.0 15.0 15.0 15.0 15.0 15.0 5.9 15.0 15.0 15.0 0.1 15.0 15.0 15.0 15.0 15.0 15.0 15.0 15.0 15.0 15.0 15.0 15.0 15.0 15.0 15.0 15.0
15.0 15.0 15.0 4.4 15.0 13.4 14.1 1.0 15.0 12.9 12.5 15.0 0.0 1.1 15.0 15.0 15.0 15.0 15.0 15.0 15.0 15.0 15.0 15.0 15.0 15.0 14.3 2.9 15.0 15.0 15.0 15.0 15.0 15.0 15.0 15.0 15.0 15.0 15.0 15.0 15.0 15.0 15.0 15.0
15.0 15.0 7.5 14.2 15.0 15.0 10.4 14.5 13.1 7.9 15.0 15.0 0.0 0.0 1.0 15.0 15.0 15.0 15.0 15.0 15.0 15.0 15.0 10.4 15.0 8.1 9.2 15.0 15.0 15.0 15.0 15.0 15.0 15.0 15.0 15.0 15.0 15.0 15.0 15.0 15.0 15.0 15.0 15.0
15.0 14.5 11.3 14.0 11.0 8.7 15.0 15.0 15.0 15.0 15.0 11.6 0.0 0.0 0.1 15.0 15.0 15.0 15.0 15.0 0.1 14.6 0.0 6.4 6.6 12.4 15.0 15.0 15.0 15.0 15.0 15.0 15.0 15.0 15.0 15.0 15.0 15.0 15.0 15.0 15.0 15.0 15.0 15.0
15.0 15.0 14.7 4.5 9.6 15.0 14.9 15.0 15.0 15.0 15.0 15.0 0.2 1.1 0.1 1.3 1.4 0.0 1.0 0.2 0.9 0.2 15.0 14.8 0.0 15.0 15.0 15.0 15.0 15.0 15.0 15.0 15.0 15.0 15.0 15.0 15.0 15.0 15.0 15.0 15.0 15.0 15.0 15.0
9.7 9.9 4.6 14.7 13.7 15.0 15.0 15.0 15.0 15.0 0.0 15.0 10.5 15.0 15.0 12.0 4.9 0.1 15.0 1.5 0.1 6.1 15.0 15.0 13.2 14.7 15.0 15.0 15.0 15.0 15.0 15.0 15.0 15.0 15.0 15.0 15.0 15.0 15.0 15.0 15.0 15.0 15.0 15.0
10.4 15.0 15.0 15.0 15.0 10.1 0.0 0.0 0.1 5.8 0.4 6.4 0.0 6.7 15.0 15.0 15.0 15.0 1.2 3.1 15.0 15.0 15.0 0.0 5.0 7.8 15.0 15.0 15.0 15.0 15.0 15.0 15.0 15.0 15.0 15.0 15.0 15.0 15.0 15.0 15.0 15.0 15.0 15.0
15.0 15.0 2.5 2.8 0.0 0.0 0.0 0.2 3.2 2.2 0.0 0.0 0.0 0.0 0.5 15.0 9.3 0.0 15.0 14.2 1.8 15.0 0.0 12.6 10.9 14.8 15.0 15.0 15.0 15.0 15.0 15.0 15.0 15.0 15.0 15.0 15.0 15.0 15.0 15.0 15.0 13.3 15.0 15.0
15.0 0.0 0.0 0.0 0.1 0.0 0.0 0.0 0.0 0.0 0.0 0.0 0.7 0.0 0.0 0.0 0.1 0.0 1.0 0.0 9.8 13.6 2.6 13.4 0.0 0.1 15.0 15.0 15.0 15.0 15.0 15.0 15.0 15.0 15.0 15.0 15.0 15.0 2.3 1.7 15.0 15.0 15.0 15.0
5.7 12.0 0.0 0.0 0.0 0.0 0.0 0.0 0.0 0.0 0.4 0.1 7.7 0.2 9.3 0.0 0.0 0.1 0.0 0.0 0.7 15.0 2.9 0.8 0.0 5.4 15.0 15.0 15.0 15.0 15.0 15.0 15.0 15.0 10.4 1.9 15.0 15.0 15.0 15.0 15.0 15.0 15.0 15.0
0.1 0.0 0.0 0.0 0.0 0.0 0.0 0.0 0.0 0.0 0.1 1.3 15.0 0.0 0.0 0.0 0.1 0.9 0.0 5.4 0.2 0.1 0.1 0.1 0.8 15.0 15.0 15.0 15.0 15.0 15.0 15.0 15.0 15.0 15.0 15.0 15.0 15.0 15.0 15.0 15.0 15.0 15.0 15.0
0.0 0.0 0.0 0.0 0.0 0.0 0.0 0.0 0.0 0.1 0.0 0.0 0.1 0.0 0.0 10.4 6.9 2.7 0.1 0.0 0.1 0.1 0.0 0.1 0.0 0.1 15.0 15.0 15.0 15.0 15.0 15.0 15.0 15.0 15.0 15.0 15.0 15.0 15.0 15.0 15.0 15.0 15.0 15.0